Date String (YYYY-MM-DD hh:mm:ss) UTC,Instrument flags,Ambient pressure (hPa),Sample flow (lpm),Bypass flow (lpm),Sample temperature (°C),Ambient temperature (°C),ASC tube jacket temperature (°C),LED temperature (°C),Box temperature (°C),Sample RH (%),Span deviation,Mass concentration (μg/m³),Mass concentration (μg/m³),Mass concentration (μg/m³)
DateTimeUTC,F1_M11,P_M11,Q1_M11,Q2_M11,T1_M11,T2_M11,T3_M11,T4_M11,T5_M11,U1_M11,ZSPAN_M11,X0_M11,X2_M11,X1_M11
2022-03-18 23:00:00,,0824.2,4.99,0.00,25.0,24.1,00.0,34.0,26.8,06.9,0000.0,0003.15,0001.70,0001.00
2022-03-18 23:01:00,,0824.2,5.03,0.00,25.0,24.1,00.0,34.0,26.8,06.7,0000.0,0003.02,0001.68,0000.99
2022-03-18 23:02:00,,0824.2,4.99,0.00,25.0,24.1,00.0,34.0,26.8,06.6,0000.0,0002.94,0001.65,0000.99
2022-03-18 23:03:00,,0824.3,5.00,0.00,25.0,24.1,00.0,34.0,26.7,07.0,0000.0,0002.96,0001.66,0000.99
2022-03-18 23:04:00,,0824.2,5.01,0.00,25.0,24.1,00.0,34.0,26.7,07.0,0000.0,0002.92,0001.65,0000.98
2022-03-18 23:05:00,,0824.1,4.98,0.00,25.0,24.1,00.0,34.0,26.8,06.9,0000.0,0002.92,0001.66,0000.98
2022-03-18 23:06:00,,0824.1,5.02,0.00,25.0,24.1,00.0,34.0,26.8,06.7,0000.0,0003.07,0001.70,0000.99
2022-03-18 23:07:00,,0824.1,4.99,0.00,25.0,24.1,00.0,34.0,26.8,06.9,0000.0,0003.00,0001.66,0000.99
2022-03-18 23:08:00,,0824.2,5.01,0.00,25.0,24.1,00.0,34.0,26.8,06.5,0000.0,0002.77,0001.61,0000.99
2022-03-18 23:09:00,,0824.2,5.00,0.00,25.0,24.1,00.0,34.0,26.8,06.7,0000.0,0002.83,0001.63,0000.98
2022-03-18 23:10:00,,0824.2,5.00,0.00,25.0,24.0,00.0,34.0,26.8,06.3,0000.0,0002.78,0001.63,0000.98
2022-03-18 23:11:00,,0824.3,5.02,0.00,25.0,24.0,00.0,34.0,26.7,06.4,0000.0,0002.89,0001.68,0000.99
2022-03-18 23:12:00,,0824.3,5.00,0.00,24.9,24.0,00.0,34.0,26.7,06.7,0000.0,0003.29,0001.77,0001.00
2022-03-18 23:13:00,,0824.3,4.99,0.00,24.9,24.0,00.0,34.0,26.7,06.6,0000.0,0003.63,0001.79,0000.99
2022-03-18 23:14:00,,0824.3,5.01,0.00,24.9,24.0,00.0,34.0,26.6,06.6,0000.0,0003.67,0001.79,0000.99
2022-03-18 23:15:00,,0824.3,4.99,0.00,24.9,24.0,00.0,34.0,26.6,06.4,0000.0,0003.77,0001.82,0000.99
2022-03-18 23:16:00,,0824.2,5.01,0.00,24.9,24.0,00.0,33.9,26.6,06.7,0000.0,0003.73,0001.81,0001.00
2022-03-18 23:17:00,,0824.2,4.99,0.00,24.9,23.9,00.0,33.9,26.6,06.2,0000.0,0003.63,0001.78,0001.00
2022-03-18 23:18:00,,0824.2,4.99,0.00,24.9,23.9,00.0,33.9,26.6,06.1,0000.0,0003.74,0001.79,0001.00
2022-03-18 23:19:00,,0824.3,5.01,0.00,24.9,23.9,00.0,33.9,26.6,06.3,0000.0,0003.80,0001.81,0001.02
2022-03-18 23:20:00,,0824.3,4.99,0.00,24.9,23.8,00.0,33.9,26.6,06.4,0000.0,0003.69,0001.77,0001.03
2022-03-18 23:21:00,,0824.4,5.02,0.00,24.8,23.8,00.0,33.9,26.5,06.5,0000.0,0003.68,0001.74,0001.03
2022-03-18 23:22:00,,0824.3,4.99,0.00,24.8,23.8,00.0,33.9,26.4,06.6,0000.0,0003.59,0001.68,0001.03
2022-03-18 23:23:00,,0824.4,4.99,0.00,24.8,23.8,00.0,33.9,26.5,06.5,0000.0,0003.32,0001.62,0001.03
2022-03-18 23:24:00,,0824.3,5.01,0.00,24.8,23.8,00.0,33.9,26.4,06.5,0000.0,0003.15,0001.61,0001.04
2022-03-18 23:25:00,,0824.4,4.99,0.00,24.8,23.8,00.0,33.8,26.4,06.3,0000.0,0003.12,0001.61,0001.04
2022-03-18 23:26:00,,0824.4,5.01,0.00,24.8,23.8,00.0,33.8,26.3,06.7,0000.0,0003.18,0001.65,0001.05
2022-03-18 23:27:00,,0824.4,5.01,0.00,24.7,23.7,00.0,33.8,26.3,07.0,0000.0,0003.28,0001.67,0001.04
2022-03-18 23:28:00,,0824.4,4.99,0.00,24.8,23.7,00.0,33.8,26.4,07.1,0000.0,0003.26,0001.68,0001.04
2022-03-18 23:29:00,,0824.4,5.00,0.00,24.7,23.8,00.0,33.8,26.3,07.1,0000.0,0003.18,0001.66,0001.03
2022-03-18 23:30:00,,0824.4,5.00,0.00,24.7,23.8,00.0,33.8,26.3,06.5,0000.0,0003.30,0001.70,0001.03
2022-03-18 23:31:00,,0824.5,4.99,0.00,24.7,23.8,00.0,33.8,26.3,06.5,0000.0,0003.37,0001.72,0001.02
2022-03-18 23:32:00,,0824.4,5.00,0.00,24.7,23.8,00.0,33.8,26.3,06.7,0000.0,0003.45,0001.77,0001.03
2022-03-18 23:33:00,,0824.4,5.02,0.00,24.7,23.8,00.0,33.8,26.3,06.6,0000.0,0003.47,0001.79,0001.03
2022-03-18 23:34:00,,0824.4,4.99,0.00,24.7,23.8,00.0,33.8,26.3,06.6,0000.0,0003.30,0001.76,0001.02
2022-03-18 23:35:00,,0824.4,5.02,0.00,24.7,23.7,00.0,33.8,26.3,06.7,0000.0,0003.21,0001.75,0001.01
2022-03-18 23:36:00,,0824.4,4.99,0.00,24.7,23.7,00.0,33.8,26.2,06.5,0000.0,0003.29,0001.74,0001.00
2022-03-18 23:37:00,,0824.4,5.01,0.00,24.7,23.7,00.0,33.8,26.3,06.4,0000.0,0003.26,0001.69,0001.00
2022-03-18 23:38:00,,0824.5,4.99,0.00,24.7,23.7,00.0,33.8,26.4,06.4,0000.0,0003.35,0001.71,0001.00
2022-03-18 23:39:00,,0824.4,5.01,0.00,24.7,23.7,00.0,33.8,26.3,06.4,0000.0,0003.37,0001.72,0001.00
2022-03-18 23:40:00,,0824.5,5.00,0.00,24.7,23.7,00.0,33.8,26.3,06.8,0000.0,0003.44,0001.74,0001.00
2022-03-18 23:41:00,,0824.5,4.98,0.00,24.7,23.7,00.0,33.8,26.3,07.0,0000.0,0003.33,0001.71,0000.99
2022-03-18 23:42:00,,0824.5,5.02,0.00,24.7,23.7,00.0,33.8,26.3,06.7,0000.0,0003.46,0001.75,0001.00
2022-03-18 23:43:00,,0824.6,4.99,0.00,24.7,23.7,00.0,33.8,26.3,06.7,0000.0,0003.64,0001.75,0000.99
2022-03-18 23:44:00,,0824.6,5.01,0.00,24.7,23.6,00.0,33.7,26.2,06.8,0000.0,0004.03,0001.73,0000.99
2022-03-18 23:45:00,,0824.6,5.00,0.00,24.6,23.6,00.0,33.7,26.2,06.6,0000.0,0004.13,0001.78,0000.99
2022-03-18 23:46:00,,0824.6,4.99,0.00,24.7,23.6,00.0,33.7,26.2,06.7,0000.0,0004.06,0001.76,0001.00
2022-03-18 23:47:00,,0824.6,5.01,0.00,24.6,23.5,00.0,33.7,26.2,06.9,0000.0,0003.97,0001.77,0001.00
2022-03-18 23:48:00,,0824.6,4.99,0.00,24.6,23.5,00.0,33.7,26.3,06.9,0000.0,0003.89,0001.77,0001.00
2022-03-18 23:49:00,,0824.6,5.00,0.00,24.6,23.5,00.0,33.7,26.3,07.1,0000.0,0003.76,0001.74,0001.00
2022-03-18 23:50:00,,0824.6,4.99,0.00,24.6,23.5,00.0,33.7,26.3,06.8,0000.0,0003.72,0001.74,0001.00
2022-03-18 23:51:00,,0824.6,5.00,0.00,24.6,23.6,00.0,33.7,26.2,06.6,0000.0,0003.69,0001.74,0001.00
2022-03-18 23:52:00,,0824.7,5.01,0.00,24.6,23.6,00.0,33.7,26.1,06.5,0000.0,0003.85,0001.79,0001.01
2022-03-18 23:53:00,,0824.6,4.99,0.00,24.6,23.6,00.0,33.7,26.2,06.5,0000.0,0003.76,0001.76,0001.01
2022-03-18 23:54:00,,0824.6,5.02,0.00,24.6,23.6,00.0,33.7,26.2,06.4,0000.0,0003.62,0001.76,0001.01
2022-03-18 23:55:00,,0824.6,4.99,0.00,24.6,23.6,00.0,33.7,26.2,06.8,0000.0,0003.21,0001.76,0001.02
2022-03-18 23:56:00,,0824.6,5.00,0.00,24.6,23.6,00.0,33.7,26.3,06.5,0000.0,0004.08,0001.74,0001.02
2022-03-18 23:57:00,,0824.7,5.01,0.00,24.6,23.6,00.0,33.7,26.2,06.3,0000.0,0004.20,0001.74,0001.03
2022-03-18 23:58:00,,0824.7,4.99,0.00,24.6,23.5,00.0,33.7,26.2,06.5,0000.0,0004.23,0001.76,0001.03
2022-03-18 23:59:00,,0824.6,5.01,0.00,24.6,23.5,00.0,33.7,26.2,06.4,0000.0,0004.22,0001.75,0001.05
